Content
SEND FEEDBACK

Daily
Averages
Monthly
Summary
Greece

ATHENS, GREECE


Home > Europe > Greece
Elevation: 69 feet     Latitude: 37 54N     Longitude: 023 44E

WEATHER
 
SELECT A DAY
Number of Records: 77,120;   Date Range: 4/14/01 - 8/31/14
 
SHARE

PRINT THIS DATA

[ ← Previous Day ]
WEATHER ALMANAC - APRIL 8, 2013
[ Next Day → ]
[ °C ]   °F
Weather ElementAverageHighLow
Temperature56.7 °F62.6 °F (1:20 pm)53.6 °F (6:20 pm)
Dewpoint47.7 °F50 °F (4:20 am)42.8 °F (2:20 pm)
Humidity72.6 %82 % (4:20 am)52 % (2:20 pm)
Barometer29.64 in29.92 in (11:50 pm)29.42 in (3:20 am)
Wind Speed7.3 mph15 mph (9:20 am)
Weather ElementAverage
Visibility6.2 mi
Wind DirectionSSE (167.9 °)

Weather ElementTotal
Precipitation---
Heating Degree Days6.9 (Base 65)
Growing Degree Days8.1 (Base 50)
Averaged from 47 records on April 8, 2013
WEATHER CONDITIONS BREAKOUT
WIND DIRECTION BREAKOUT
WEATHER BY HOUR - APRIL 8, 2013
[ °C ]   °F
Local TimeTemperatureDewpointHumidityBarometerVisibilityWind DirectionWind SpeedGust SpeedPrecipitationEventsConditions
12:50 AM59.0 °F46.4 °F63 %29.44 in6.2 miSW (220°)11.5 mphMostly Cloudy
1:20 AM57.2 °F46.4 °F67 %29.44 in6.2 miSW (220°)4.6 mphMostly Cloudy
1:50 AM57.2 °F46.4 °F67 %29.44 in6.2 miSSW (210°)9.2 mphMostly Cloudy
2:20 AM55.4 °F48.2 °F77 %29.44 in6.2 miSW (220°)4.6 mphMostly Cloudy
2:50 AM55.4 °F48.2 °F77 %29.44 in6.2 miVariable1.2 mphMostly Cloudy
3:20 AM57.2 °F48.2 °F72 %29.42 in6.2 miWSW (250°)1.2 mphMostly Cloudy
3:50 AM55.4 °F48.2 °F77 %29.42 in6.2 miSouth (170°)2.3 mphMostly Cloudy
4:20 AM55.4 °F50.0 °F82 %29.42 in6.2 miCalmMostly Cloudy
4:50 AM55.4 °F50.0 °F82 %29.42 in6.2 miCalmMostly Cloudy
5:20 AM55.4 °F50.0 °F82 %29.42 in6.2 miVariable3.5 mphMostly Cloudy
5:50 AM57.2 °F48.2 °F72 %29.44 in6.2 miNorth (360°)3.5 mphMostly Cloudy
6:20 AM55.4 °F48.2 °F77 %29.44 in6.2 miNorth (360°)2.3 mphMostly Cloudy
6:50 AM55.4 °F48.2 °F77 %29.44 in6.2 miNNW (330°)1.2 mphMostly Cloudy
7:20 AM55.4 °F48.2 °F77 %29.47 in6.2 miWNW (300°)5.8 mphRainLight Rain
7:50 AM57.2 °F50.0 °F77 %29.50 in6.2 miWest (260°)4.6 mphDrizzle
8:20 AM57.2 °F50.0 °F77 %29.50 in6.2 miVariable3.5 mphRainLight Rain
8:50 AM57.2 °F48.2 °F72 %29.53 in6.2 miNW (320°)11.5 mphOvercast
9:20 AM57.2 °F48.2 °F72 %29.56 in6.2 miNW (320°)15.0 mphMostly Cloudy
9:50 AM57.2 °F48.2 °F72 %29.56 in6.2 miNW (310°)11.5 mphMostly Cloudy
10:20 AM60.8 °F48.2 °F63 %29.59 in6.2 miNW (310°)10.4 mphMostly Cloudy
10:50 AM59.0 °F46.4 °F63 %29.62 in6.2 miNNW (330°)12.7 mphMostly Cloudy
11:20 AM59.0 °F44.6 °F59 %29.62 in6.2 miNW (320°)11.5 mphMostly Cloudy
11:50 AM60.8 °F46.4 °F59 %29.65 in6.2 miNNW (340°)11.5 mphMostly Cloudy
12:20 PM60.8 °F44.6 °F55 %29.68 in6.2 miNorth (350°)8.1 mphMostly Cloudy
12:50 PM59.0 °F46.4 °F63 %29.68 in6.2 miNNW (330°)11.5 mphMostly Cloudy
1:20 PM62.6 °F46.4 °F55 %29.68 in6.2 miNNW (330°)12.7 mphMostly Cloudy
1:50 PM60.8 °F44.6 °F55 %29.71 in6.2 miNNW (330°)10.4 mphMostly Cloudy
2:20 PM60.8 °F42.8 °F52 %29.71 in6.2 miNorth (350°)9.2 mphMostly Cloudy
2:50 PM59.0 °F46.4 °F63 %29.71 in6.2 miNW (310°)6.9 mphMostly Cloudy
3:20 PM59.0 °F48.2 °F67 %29.74 in6.2 miNE (50°)10.4 mphMostly Cloudy
3:50 PM59.0 °F48.2 °F67 %29.74 in6.2 miNE (50°)11.5 mphMostly Cloudy
4:20 PM59.0 °F50.0 °F72 %29.74 in6.2 miNE (50°)12.7 mphMostly Cloudy
4:50 PM57.2 °F48.2 °F72 %29.74 in6.2 miENE (70°)10.4 mphMostly Cloudy
5:20 PM55.4 °F48.2 °F77 %29.77 in5.6 miNE (50°)11.5 mphRainLight Rain
5:50 PM55.4 °F48.2 °F77 %29.77 in6.2 miNNE (30°)9.2 mphRainLight Rain
6:20 PM53.6 °F48.2 °F82 %29.80 in6.2 miNE (50°)6.9 mphMostly Cloudy
6:50 PM53.6 °F48.2 °F82 %29.80 in6.2 miNE (40°)10.4 mphRainLight Rain
7:20 PM53.6 °F48.2 °F82 %29.83 in6.2 miNE (40°)8.1 mphMostly Cloudy
7:50 PM53.6 °F48.2 °F82 %29.83 in6.2 miENE (60°)9.2 mphMostly Cloudy
8:20 PM53.6 °F48.2 °F82 %29.83 in6.2 miENE (60°)6.9 mphMostly Cloudy
8:50 PM53.6 °F48.2 °F82 %29.86 in6.2 miENE (60°)6.9 mphMostly Cloudy
9:20 PM53.6 °F48.2 °F82 %29.86 in6.2 miENE (60°)5.8 mphMostly Cloudy
9:50 PM53.6 °F46.4 °F77 %29.89 in6.2 miNNE (30°)5.8 mphMostly Cloudy
10:20 PM53.6 °F46.4 °F77 %29.89 in6.2 miVariable3.5 mphMostly Cloudy
10:50 PM53.6 °F48.2 °F82 %29.89 in6.2 miVariable3.5 mphMostly Cloudy
11:20 PM53.6 °F48.2 °F82 %29.89 in6.2 miNE (40°)5.8 mphMostly Cloudy
11:50 PM53.6 °F48.2 °F82 %29.92 in6.2 miVariable3.5 mphMostly Cloudy
Hourly data recorded from LGAV, located miles away from Athens, Greece







STORIES FROM OUR PARTNERS